Theta_e
339 340 337 333 330 329 327 321 319 320 325 333 335 336 336 337 331 327 328 329 333 337 340 340 337 335 334 333 333 334 334 335 336 340 340 342 339 338 337 336 335 337 336
336 340 338 334 330 329 328 324 322 320 321 326 332 335 336 335 331 328 328 330 334 337 338 339 339 336 333 330 329 329 333 335 336 339 339 340 338 336 335 334 335 337 336
334 340 339 336 333 330 328 327 324 323 321 322 325 329 330 329 328 327 328 329 333 334 335 335 333 330 328 327 328 329 332 333 337 339 339 340 339 335 334 334 333 335 336
337 340 340 337 335 332 329 328 327 325 323 323 323 323 324 326 326 325 326 328 329 330 330 331 328 325 325 327 329 330 332 333 334 337 338 340 339 335 334 334 334 334 335
340 340 341 340 338 335 332 329 328 327 326 324 324 324 324 324 324 324 324 324 325 326 328 329 327 324 324 327 328 331 332 333 334 335 337 338 338 335 334 334 334 334 335
341 341 341 342 341 339 337 334 330 328 327 326 325 325 325 324 323 323 322 322 324 327 328 330 329 325 323 326 328 334 334 334 334 334 335 336 336 341 335 334 334 334 336
341 340 340 340 341 342 340 338 336 332 329 328 327 327 327 326 325 325 324 323 323 324 327 329 330 327 322 325 327 335 336 337 337 336 334 333 335 340 336 333 333 334 334
343 343 342 342 342 342 342 341 339 338 336 333 331 329 328 328 328 327 327 326 326 325 326 329 331 330 325 322 326 328 336 337 336 336 336 333 332 334 335 333 333 333 333
341 340 341 341 341 342 342 342 341 341 340 339 338 336 333 331 330 329 329 329 328 328 328 330 331 330 329 324 324 327 331 334 336 336 336 334 332 336 339 336 334 333 332
341 341 340 339 340 340 340 340 340 340 340 340 340 340 339 338 334 332 331 331 330 331 332 332 332 333 332 330 325 325 328 331 335 336 336 335 333 336 338 339 334 333 332
346 345 343 343 343 342 341 340 340 340 340 341 340 340 340 340 340 338 335 334 332 332 333 334 334 335 334 333 331 325 327 329 329 332 336 336 334 336 337 337 340 332 332
344 346 346 346 347 345 343 342 341 342 345 346 344 344 342 341 342 342 341 339 337 336 334 334 335 336 337 336 334 331 326 327 330 330 334 337 335 336 337 337 334 332 332
338 342 345 345 344 344 342 341 341 345 344 343 340 341 342 341 340 340 340 340 342 341 339 336 335 336 337 337 336 335 330 326 328 330 332 336 336 335 337 336 334 330 331
330 333 337 339 341 342 343 343 342 341 341 341 340 341 342 341 342 340 341 338 336 337 338 340 339 337 336 337 338 336 333 330 325 328 330 333 335 335 335 336 335 332 331
323 326 328 333 337 338 339 337 336 336 338 333 335 336 337 337 334 335 336 336 335 336 337 339 339 339 339 340 340 339 336 334 330 327 327 329 332 334 335 335 336 335 331
314 316 319 322 323 326 327 325 323 322 322 324 325 321 323 322 323 321 322 321 323 320 324 328 335 338 338 339 338 338 337 336 335 333 328 327 330 331 334 335 336 335 335
311 311 311 311 312 312 311 313 314 312 311 310 309 308 309 309 310 307 310 309 310 311 313 314 317 331 335 337 338 337 337 335 334 334 334 330 327 330 331 334 335 336 334
309 309 308 307 307 307 306 306 306 305 305 304 304 303 302 301 300 301 302 302 303 304 306 308 313 314 315 321 332 336 336 336 334 334 334 334 332 327 329 331 334 335 335
308 307 306 306 305 304 304 303 302 302 302 300 300 300 300 299 298 297 298 299 301 302 304 307 308 312 315 315 316 316 324 334 334 333 332 333 334 332 329 328 332 335 335
308 307 305 304 304 304 303 302 301 301 301 301 301 301 300 299 298 297 297 298 299 300 302 306 308 310 313 315 316 314 314 315 330 332 332 331 331 332 332 330 330 334 335
306 305 305 304 303 303 302 301 301 301 301 301 300 299 299 299 298 297 297 297 298 299 300 302 306 310 313 315 315 314 314 311 315 320 329 331 331 331 331 331 331 332 335
305 305 305 304 303 302 302 301 301 301 301 300 299 299 299 298 299 299 300 300 299 300 300 300 304 310 311 312 314 314 312 313 320 320 319 321 329 330 330 331 331 332 332
305 304 304 303 302 302 301 301 301 300 300 299 299 299 300 301 300 300 301 300 300 300 303 304 307 310 309 311 312 314 315 314 313 313 313 311 314 315 326 330 331 332 331
304 304 303 302 302 302 301 301 301 300 299 298 299 301 302 301 300 299 300 300 301 304 305 307 308 306 309 309 309 312 313 313 313 313 311 311 311 310 310 314 316 329 331
304 304 302 302 302 302 301 301 300 299 298 298 300 302 302 302 302 302 302 302 302 303 304 305 305 305 305 305 307 308 307 308 309 311 311 310 310 311 310 310 310 312 314
304 304 302 302 302 301 301 300 299 298 298 298 300 302 301 301 301 301 301 301 300 300 300 302 303 304 303 303 304 304 305 306 307 308 309 310 311 311 311 310 311 311 312
Wind_Speed
17 24 25 25 23 21 19 19 20 21 22 24 23 23 22 20 19 20 19 19 18 16 14 12 12 11 11 10 10 11 12 13 13 14 15 16 14 14 15 15 15 15 14
24 26 26 25 24 22 20 18 18 19 20 21 22 22 20 17 17 17 18 18 16 13 12 10 8 8 8 8 10 11 13 14 14 15 15 14 14 12 13 14 14 14 15
25 29 27 25 22 20 19 17 17 17 17 18 18 18 17 16 16 17 16 15 13 10 8 7 6 6 7 8 10 12 13 13 14 15 14 13 12 11 12 12 13 13 13
27 30 27 23 21 20 19 17 15 14 14 15 15 15 14 14 15 14 13 13 12 10 8 7 5 6 7 9 10 11 12 13 13 13 13 12 11 11 11 12 13 13 12
28 27 24 22 20 18 17 16 14 12 12 12 12 12 13 14 13 12 12 11 10 9 9 8 6 6 7 9 10 11 13 13 12 12 12 11 10 10 12 12 13 13 13
24 23 22 22 20 19 17 15 14 13 11 10 10 10 10 10 10 11 10 9 9 8 8 7 7 6 7 9 11 13 14 13 11 10 10 10 10 11 11 12 12 13 13
23 20 19 18 18 17 15 14 12 12 11 9 9 8 8 8 8 9 9 10 10 9 9 8 7 7 8 9 11 13 13 13 8 7 9 9 10 11 11 12 12 13 13
14 12 12 11 11 12 12 12 11 10 9 9 8 8 8 8 9 9 10 10 10 10 10 10 9 9 9 10 11 14 16 15 11 10 12 11 11 11 11 13 13 13 12
10 8 6 6 7 8 9 10 10 9 9 8 8 9 10 11 11 11 12 12 12 12 12 12 11 11 11 12 13 13 16 16 13 10 14 13 13 13 13 13 14 14 14
10 7 6 5 4 5 6 8 8 8 8 9 9 10 11 13 14 14 14 14 14 14 14 14 13 13 13 13 15 16 17 17 16 14 16 16 16 15 14 15 16 15 15
11 9 8 6 5 6 8 7 7 6 6 7 9 10 10 12 14 15 15 15 17 17 18 17 17 17 16 16 17 18 19 21 22 21 21 20 20 17 16 17 17 17 16
12 9 9 8 7 6 5 4 3 4 3 5 7 9 9 11 14 14 15 16 18 19 20 21 21 21 20 20 20 21 23 24 24 25 24 24 24 21 19 20 18 20 20
18 15 10 7 5 8 10 7 3 1 2 5 4 6 8 10 12 13 14 16 17 20 22 24 25 25 25 25 25 25 26 27 29 29 28 27 26 25 22 23 20 21 23
20 20 17 15 11 8 6 9 8 8 7 4 5 2 3 6 9 11 13 16 18 19 20 24 27 28 30 30 28 30 29 31 33 34 32 30 29 29 26 25 25 23 26
23 21 22 20 20 19 16 14 15 15 15 17 14 11 6 7 9 7 7 6 10 9 14 21 24 25 28 30 30 30 35 36 35 36 36 36 35 33 32 32 31 28 28
24 25 23 23 23 24 25 22 21 20 19 17 16 14 11 10 8 8 7 8 8 10 11 11 13 21 26 28 32 32 35 37 39 38 37 39 38 38 37 37 36 34 32
24 25 25 24 22 24 24 25 23 22 21 21 20 17 15 12 11 10 10 11 13 13 14 14 12 12 19 26 31 31 34 35 37 38 41 40 40 40 41 40 40 40 36
23 23 23 23 23 24 24 24 22 20 19 18 16 14 14 14 14 13 12 12 13 14 15 15 15 16 15 15 20 28 33 34 35 37 37 42 44 44 45 44 45 46 42
21 22 22 21 22 23 23 21 18 16 17 16 15 16 18 18 18 17 15 14 14 14 14 15 16 15 18 21 21 22 22 29 33 34 35 39 42 46 45 48 49 51 49
18 18 18 18 18 17 17 17 15 14 15 15 16 17 18 20 20 19 16 15 16 16 16 17 18 16 14 17 24 25 20 23 25 31 35 35 38 41 45 42 49 55 55
18 16 15 15 14 12 15 15 15 15 12 17 18 20 22 22 21 19 17 16 17 16 16 15 16 14 14 16 15 22 26 30 25 25 29 36 37 40 43 46 43 46 53
17 14 13 13 11 12 14 14 12 12 10 15 20 22 23 23 21 17 15 17 17 16 15 14 13 11 10 11 9 14 4 13 4 12 15 17 25 36 41 46 46 46 47
15 13 11 10 9 9 10 11 11 8 11 13 20 23 22 20 16 11 11 16 15 15 14 12 10 9 8 9 12 4 3 2 14 21 23 32 22 20 26 40 46 49 50
12 11 9 7 7 7 7 9 11 11 11 13 16 17 17 17 15 10 8 12 11 11 11 9 8 10 10 9 13 8 13 18 5 9 15 28 33 30 33 37 27 41 52
11 9 4 2 4 7 4 7 10 11 12 13 13 13 15 16 18 18 15 12 12 13 12 9 11 12 9 8 10 12 18 18 19 8 11 14 30 27 29 36 42 44 33
16 15 12 6 2 4 4 4 7 10 14 15 14 13 13 15 16 15 14 13 14 14 13 11 11 11 12 11 10 12 11 8 12 11 11 14 13 32 28 33 34 38 36
Wind_Direction
174 177 170 164 162 159 152 142 138 136 136 144 148 152 151 148 147 148 149 148 152 152 146 139 129 128 126 126 125 123 122 120 118 116 119 115 116 119 119 117 114 111 109
180 179 173 170 166 163 157 146 138 135 135 141 146 151 153 151 149 151 152 154 155 154 151 143 136 132 131 130 125 122 125 125 125 123 120 121 122 119 120 119 119 117 114
175 178 174 172 168 165 163 154 147 142 140 142 144 149 153 154 154 156 154 155 155 153 148 139 135 133 130 128 125 127 130 129 126 129 135 129 122 126 128 126 126 128 124
176 174 174 172 170 169 170 165 157 153 150 149 149 149 151 152 154 153 156 159 160 158 153 151 143 137 139 135 131 132 133 130 131 138 139 138 133 130 137 140 140 139 138
167 173 174 175 175 175 176 172 169 165 162 161 158 155 155 157 156 158 163 166 168 169 170 164 157 155 156 147 142 141 139 137 136 140 146 150 149 145 149 152 152 148 144
165 173 177 181 181 182 183 180 180 178 177 175 170 168 167 167 167 169 171 176 180 185 187 180 173 173 176 165 155 155 154 149 144 150 158 158 164 158 160 161 162 155 148
163 170 179 186 189 189 190 191 189 188 189 190 188 187 187 188 188 190 192 192 193 196 203 203 195 189 192 190 174 172 174 169 171 186 185 175 178 172 172 172 172 169 166
155 162 170 177 187 195 198 201 205 207 206 207 208 210 212 215 212 215 217 217 215 212 212 215 211 205 206 207 200 187 193 202 214 222 204 190 191 184 184 183 180 180 178
135 139 148 167 186 201 208 214 219 226 230 230 232 234 234 233 232 231 234 234 234 234 231 229 226 221 216 218 220 207 203 209 210 209 201 204 201 192 188 193 188 185 184
123 132 152 169 198 219 227 231 237 244 249 254 255 252 250 247 243 240 242 245 248 247 246 246 244 238 231 227 229 226 217 215 220 219 213 214 209 201 195 193 195 194 192
128 139 152 174 206 236 239 238 242 254 269 270 270 269 266 265 259 252 250 251 255 255 256 255 254 251 245 238 235 234 231 226 224 223 221 217 214 213 204 202 201 200 199
118 143 159 169 179 188 209 231 243 258 276 303 298 303 299 297 293 282 268 259 261 262 261 260 259 258 256 252 244 238 236 235 232 230 228 220 217 217 211 216 207 203 199
122 122 142 157 153 172 169 165 175 165 4 11 330 315 314 309 309 298 297 291 283 274 268 265 262 259 256 255 254 245 242 241 239 235 232 225 221 219 220 223 225 210 203
110 111 119 128 127 109 138 166 162 159 148 119 75 16 328 344 324 312 299 302 301 293 286 278 270 266 263 261 256 258 252 248 245 242 237 230 228 227 220 227 228 219 212
107 105 104 112 112 108 107 115 117 119 111 103 94 82 81 84 59 52 49 32 25 352 309 295 290 280 273 268 259 254 260 253 251 249 245 240 233 231 229 223 227 222 216
111 106 107 106 104 105 106 106 103 100 99 99 93 86 85 68 64 34 25 359 339 339 324 308 306 289 283 276 267 266 259 257 259 254 252 249 241 235 231 226 225 227 216
112 108 102 101 103 101 100 98 97 90 85 78 70 63 56 46 41 18 24 358 351 347 337 331 325 302 294 276 269 271 269 260 260 260 255 253 252 243 237 233 228 228 226
120 112 107 103 100 98 93 89 85 80 72 66 59 50 39 25 13 1 354 342 337 336 336 338 337 332 320 323 287 263 263 261 257 255 254 254 249 248 240 236 230 229 228
119 112 107 104 98 95 91 83 74 68 59 55 45 34 25 16 6 359 354 348 340 335 337 339 330 330 325 322 324 310 297 260 259 261 249 247 251 248 245 239 231 228 228
120 115 111 105 101 93 82 72 65 59 55 41 30 20 9 2 357 352 348 348 346 343 340 342 344 335 321 322 321 316 306 296 281 258 254 252 246 245 245 238 234 227 229
133 124 114 110 98 81 65 58 56 57 48 32 22 11 1 355 348 342 336 337 347 345 344 343 348 348 337 340 333 329 317 310 291 278 264 252 250 247 239 238 231 227 225
144 131 119 102 84 62 51 58 59 50 30 15 6 1 353 347 342 336 332 336 338 336 335 339 343 341 331 333 326 311 332 326 346 331 328 324 273 248 241 233 231 228 225
150 140 125 108 90 69 57 60 55 46 28 0 1 358 359 357 350 340 326 333 334 336 334 336 343 349 328 334 332 283 320 283 329 307 294 310 297 314 282 236 233 227 224
155 144 130 121 92 68 44 34 38 33 20 1 355 1 9 14 15 8 341 333 342 350 343 344 359 352 349 331 339 322 293 296 305 301 292 300 302 292 287 280 303 244 223
163 143 143 166 68 31 357 15 24 14 1 355 355 3 14 23 29 31 24 22 5 358 2 353 329 325 327 319 315 310 311 307 291 267 294 295 297 292 290 290 284 277 293
179 183 186 202 195 225 260 356 11 1 356 354 354 356 2 14 18 22 12 12 1 356 352 337 326 318 315 311 306 303 289 284 293 290 292 288 278 295 295 293 281 273 284